Time,TemperatureF,DewpointF,PressureIn,WindDirection,WindDirectionDegrees,WindSpeedMPH,WindSpeedGustMPH,Humidity,HourlyPrecipIn,Conditions,Clouds,dailyrainin,SoftwareType,DateUTC
2013-03-15 00:00:00,45.8,30.1,30.12,WNW,297,5.0,8.0,54,0.00,,---,0.00,VWS V14.01,2013-03-15 04:00:00,
2013-03-15 00:05:00,45.6,29.9,30.12,WNW,296,6.0,8.0,54,0.00,,---,0.00,VWS V14.01,2013-03-15 04:05:00,
2013-03-15 00:10:00,45.7,30.0,30.12,WNW,302,6.0,8.0,54,0.00,,---,0.00,VWS V14.01,2013-03-15 04:10:00,
2013-03-15 00:15:00,45.6,30.4,30.12,NW,308,5.0,7.0,55,0.00,,---,0.00,VWS V14.01,2013-03-15 04:15:00,
2013-03-15 00:20:00,45.5,31.2,30.12,NW,304,4.0,8.0,57,0.00,,---,0.00,VWS V14.01,2013-03-15 04:20:00,
2013-03-15 00:25:00,45.6,31.7,30.12,WNW,290,5.0,6.0,58,0.00,,---,0.00,VWS V14.01,2013-03-15 04:25:00,
2013-03-15 00:30:00,45.5,31.6,30.12,WNW,292,2.0,4.0,58,0.00,,---,0.00,VWS V14.01,2013-03-15 04:30:00,
2013-03-15 00:35:00,45.3,31.8,30.12,NW,305,2.0,4.0,59,0.00,,---,0.00,VWS V14.01,2013-03-15 04:35:00,
2013-03-15 00:40:00,45.0,31.5,30.12,NW,312,3.0,6.0,59,0.00,,---,0.00,VWS V14.01,2013-03-15 04:40:00,
2013-03-15 00:45:00,44.8,30.9,30.13,WNW,290,4.0,7.0,58,0.00,,---,0.00,VWS V14.01,2013-03-15 04:45:00,
2013-03-15 00:50:00,44.7,30.9,30.12,WNW,296,3.0,5.0,58,0.00,,---,0.00,VWS V14.01,2013-03-15 04:50:00,
2013-03-15 00:55:00,44.5,31.1,30.13,WNW,302,3.0,5.0,59,0.00,,---,0.00,VWS V14.01,2013-03-15 04:55:00,
2013-03-15 01:00:00,44.4,31.0,30.12,WNW,294,4.0,5.0,59,0.00,,---,0.00,VWS V14.01,2013-03-15 05:00:00,
2013-03-15 01:05:00,44.4,31.0,30.13,WNW,294,3.0,4.0,59,0.00,,---,0.00,VWS V14.01,2013-03-15 05:05:00,
2013-03-15 01:10:00,44.3,30.9,30.13,WNW,302,7.0,7.0,59,0.00,,---,0.00,VWS V14.01,2013-03-15 05:10:00,
2013-03-15 01:15:00,44.1,30.7,30.12,WNW,292,4.0,6.0,59,0.00,,---,0.00,VWS V14.01,2013-03-15 05:15:00,
2013-03-15 01:20:00,44.0,31.0,30.13,WNW,301,4.0,4.0,60,0.00,,---,0.00,VWS V14.01,2013-03-15 05:20:00,
2013-03-15 01:25:00,43.9,30.9,30.13,WNW,301,4.0,6.0,60,0.00,,---,0.00,VWS V14.01,2013-03-15 05:25:00,
2013-03-15 01:30:00,44.0,30.6,30.13,WNW,298,5.0,6.0,59,0.00,,---,0.00,VWS V14.01,2013-03-15 05:30:00,
2013-03-15 01:35:00,44.0,30.6,30.13,WNW,291,4.0,6.0,59,0.00,,---,0.00,VWS V14.01,2013-03-15 05:35:00,
2013-03-15 01:40:00,43.8,30.4,30.13,WNW,292,5.0,6.0,59,0.00,,---,0.00,VWS V14.01,2013-03-15 05:40:00,
2013-03-15 01:45:00,43.8,30.0,30.13,WNW,300,4.0,6.0,58,0.00,,---,0.00,VWS V14.01,2013-03-15 05:45:00,
2013-03-15 01:50:00,43.8,30.0,30.13,WNW,299,6.0,7.0,58,0.00,,---,0.00,VWS V14.01,2013-03-15 05:50:00,
2013-03-15 01:55:00,43.8,29.6,30.13,WNW,299,7.0,8.0,57,0.00,,---,0.00,VWS V14.01,2013-03-15 05:55:00,
2013-03-15 02:00:00,43.8,30.0,30.13,NW,310,7.0,7.0,58,0.00,,---,0.00,VWS V14.01,2013-03-15 06:00:00,
2013-03-15 02:05:00,43.7,29.9,30.14,WNW,285,6.0,7.0,58,0.00,,---,0.00,VWS V14.01,2013-03-15 06:05:00,
2013-03-15 02:10:00,43.6,29.8,30.14,WNW,298,5.0,7.0,58,0.00,,---,0.00,VWS V14.01,2013-03-15 06:10:00,
2013-03-15 02:15:00,43.6,29.4,30.14,WNW,290,6.0,7.0,57,0.00,,---,0.00,VWS V14.01,2013-03-15 06:15:00,
2013-03-15 02:20:00,43.5,29.7,30.14,NW,307,6.0,6.0,58,0.00,,---,0.00,VWS V14.01,2013-03-15 06:20:00,
2013-03-15 02:25:00,43.3,29.5,30.14,NW,306,4.0,6.0,58,0.00,,---,0.00,VWS V14.01,2013-03-15 06:25:00,
2013-03-15 02:30:00,43.3,29.1,30.14,NW,313,5.0,6.0,57,0.00,,---,0.00,VWS V14.01,2013-03-15 06:30:00,
2013-03-15 02:35:00,43.1,29.3,30.14,NW,321,5.0,6.0,58,0.00,,---,0.00,VWS V14.01,2013-03-15 06:35:00,
2013-03-15 02:40:00,42.9,28.7,30.14,WNW,302,5.0,8.0,57,0.00,,---,0.00,VWS V14.01,2013-03-15 06:40:00,
2013-03-15 02:45:00,42.8,28.6,30.14,NW,307,6.0,8.0,57,0.00,,---,0.00,VWS V14.01,2013-03-15 06:45:00,
2013-03-15 02:50:00,42.8,28.6,30.14,NW,310,5.0,6.0,57,0.00,,---,0.00,VWS V14.01,2013-03-15 06:50:00,
2013-03-15 02:55:00,42.7,28.1,30.13,NW,310,2.0,7.0,56,0.00,,---,0.00,VWS V14.01,2013-03-15 06:55:00,
2013-03-15 03:00:00,42.6,28.5,30.14,NW,307,4.0,6.0,57,0.00,,---,0.00,VWS V14.01,2013-03-15 07:00:00,
2013-03-15 03:05:00,42.5,28.8,30.14,NW,313,4.0,5.0,58,0.00,,---,0.00,VWS V14.01,2013-03-15 07:05:00,
2013-03-15 03:10:00,42.4,28.7,30.14,NW,308,4.0,5.0,58,0.00,,---,0.00,VWS V14.01,2013-03-15 07:10:00,
2013-03-15 03:15:00,42.4,28.7,30.14,NW,304,4.0,7.0,58,0.00,,---,0.00,VWS V14.01,2013-03-15 07:15:00,
2013-03-15 03:20:00,42.5,28.8,30.14,NW,312,3.0,7.0,58,0.00,,---,0.00,VWS V14.01,2013-03-15 07:20:00,
2013-03-15 03:25:00,42.5,28.8,30.14,NW,315,3.0,6.0,58,0.00,,---,0.00,VWS V14.01,2013-03-15 07:25:00,
2013-03-15 03:30:00,42.4,28.7,30.13,NW,311,3.0,5.0,58,0.00,,---,0.00,VWS V14.01,2013-03-15 07:30:00,
2013-03-15 03:35:00,42.3,29.0,30.13,NW,308,4.0,5.0,59,0.00,,---,0.00,VWS V14.01,2013-03-15 07:35:00,
2013-03-15 03:40:00,42.2,28.9,30.13,NW,315,3.0,5.0,59,0.00,,---,0.00,VWS V14.01,2013-03-15 07:40:00,
2013-03-15 03:45:00,42.2,28.5,30.13,NW,322,4.0,8.0,58,0.00,,---,0.00,VWS V14.01,2013-03-15 07:45:00,
2013-03-15 03:50:00,42.3,28.6,30.13,NW,315,4.0,6.0,58,0.00,,---,0.00,VWS V14.01,2013-03-15 07:50:00,
2013-03-15 03:55:00,42.2,28.5,30.13,NW,309,2.0,5.0,58,0.00,,---,0.00,VWS V14.01,2013-03-15 07:55:00,
2013-03-15 04:00:00,42.1,28.0,30.13,NW,306,2.0,5.0,57,0.00,,---,0.00,VWS V14.01,2013-03-15 08:00:00,
2013-03-15 04:05:00,42.1,27.5,30.13,NNW,328,2.0,6.0,56,0.00,,---,0.00,VWS V14.01,2013-03-15 08:05:00,
2013-03-15 04:10:00,41.9,27.4,30.13,NW,325,2.0,5.0,56,0.00,,---,0.00,VWS V14.01,2013-03-15 08:10:00,
2013-03-15 04:15:00,41.9,27.4,30.13,NW,321,3.0,5.0,56,0.00,,---,0.00,VWS V14.01,2013-03-15 08:15:00,
2013-03-15 04:20:00,41.8,27.3,30.13,NNW,327,1.0,4.0,56,0.00,,---,0.00,VWS V14.01,2013-03-15 08:20:00,
2013-03-15 04:25:00,41.6,26.6,30.13,NW,322,6.0,7.0,55,0.00,,---,0.00,VWS V14.01,2013-03-15 08:25:00,
2013-03-15 04:30:00,41.6,26.6,30.13,North,355,2.0,7.0,55,0.00,,---,0.00,VWS V14.01,2013-03-15 08:30:00,
2013-03-15 04:35:00,41.5,26.5,30.13,North,355,5.0,7.0,55,0.00,,---,0.00,VWS V14.01,2013-03-15 08:35:00,
2013-03-15 04:40:00,41.4,26.5,30.13,NNW,331,4.0,8.0,55,0.00,,---,0.00,VWS V14.01,2013-03-15 08:40:00,
2013-03-15 04:45:00,41.2,26.3,30.13,NNW,348,6.0,7.0,55,0.00,,---,0.00,VWS V14.01,2013-03-15 08:45:00,
2013-03-15 04:50:00,40.8,25.9,30.13,NNW,348,6.0,8.0,55,0.00,,---,0.00,VWS V14.01,2013-03-15 08:50:00,
2013-03-15 04:55:00,40.5,26.0,30.13,NNW,344,6.0,8.0,56,0.00,,---,0.00,VWS V14.01,2013-03-15 08:55:00,
2013-03-15 05:00:00,40.2,25.8,30.13,NW,325,5.0,9.0,56,0.00,,---,0.00,VWS V14.01,2013-03-15 09:00:00,
2013-03-15 05:05:00,40.0,26.4,30.13,NW,323,7.0,7.0,58,0.00,,---,0.00,VWS V14.01,2013-03-15 09:05:00,
2013-03-15 05:10:00,39.8,26.7,30.13,NNW,340,4.0,7.0,59,0.00,,---,0.00,VWS V14.01,2013-03-15 09:10:00,
2013-03-15 05:15:00,39.6,26.5,30.13,NNW,340,2.0,7.0,59,0.00,,---,0.00,VWS V14.01,2013-03-15 09:15:00,
2013-03-15 05:20:00,39.5,26.8,30.13,NNW,346,5.0,6.0,60,0.00,,---,0.00,VWS V14.01,2013-03-15 09:20:00,
2013-03-15 05:25:00,39.4,26.3,30.13,North,355,4.0,9.0,59,0.00,,---,0.00,VWS V14.01,2013-03-15 09:25:00,
2013-03-15 05:30:00,39.4,26.3,30.13,North,355,5.0,7.0,59,0.00,,---,0.00,VWS V14.01,2013-03-15 09:30:00,
2013-03-15 05:35:00,39.3,26.2,30.13,NNW,340,4.0,5.0,59,0.00,,---,0.00,VWS V14.01,2013-03-15 09:35:00,
2013-03-15 05:40:00,39.1,26.4,30.14,NNW,343,3.0,4.0,60,0.00,,---,0.00,VWS V14.01,2013-03-15 09:40:00,
2013-03-15 05:45:00,38.9,26.2,30.14,NNW,338,4.0,5.0,60,0.00,,---,0.00,VWS V14.01,2013-03-15 09:45:00,
2013-03-15 05:50:00,38.8,26.1,30.14,NNW,335,2.0,4.0,60,0.00,,---,0.00,VWS V14.01,2013-03-15 09:50:00,
2013-03-15 05:55:00,38.5,25.8,30.14,NNW,331,3.0,4.0,60,0.00,,---,0.00,VWS V14.01,2013-03-15 09:55:00,
2013-03-15 06:00:00,38.4,26.1,30.14,NW,321,3.0,6.0,61,0.00,,---,0.00,VWS V14.01,2013-03-15 10:00:00,
2013-03-15 06:05:00,38.3,26.4,30.15,NW,323,3.0,4.0,62,0.00,,---,0.00,VWS V14.01,2013-03-15 10:05:00,
2013-03-15 06:10:00,38.2,26.7,30.15,NW,325,3.0,4.0,63,0.00,,---,0.00,VWS V14.01,2013-03-15 10:10:00,
2013-03-15 06:15:00,38.1,26.6,30.14,NW,326,3.0,3.0,63,0.00,,---,0.00,VWS V14.01,2013-03-15 10:15:00,
2013-03-15 06:20:00,38.2,26.3,30.14,NNW,327,2.0,4.0,62,0.00,,---,0.00,VWS V14.01,2013-03-15 10:20:00,
2013-03-15 06:25:00,38.2,26.0,30.15,NW,325,3.0,5.0,61,0.00,,---,0.00,VWS V14.01,2013-03-15 10:25:00,
2013-03-15 06:30:00,38.2,26.0,30.15,NW,323,4.0,7.0,61,0.00,,---,0.00,VWS V14.01,2013-03-15 10:30:00,
2013-03-15 06:35:00,38.3,26.0,30.15,NNW,333,5.0,6.0,61,0.00,,---,0.00,VWS V14.01,2013-03-15 10:35:00,
2013-03-15 06:40:00,38.3,26.0,30.15,NNW,337,3.0,4.0,61,0.00,,---,0.00,VWS V14.01,2013-03-15 10:40:00,
2013-03-15 06:45:00,38.3,26.0,30.15,NNW,337,2.0,3.0,61,0.00,,---,0.00,VWS V14.01,2013-03-15 10:45:00,
2013-03-15 06:50:00,38.3,26.0,30.15,NNW,339,4.0,4.0,61,0.00,,---,0.00,VWS V14.01,2013-03-15 10:50:00,
2013-03-15 06:55:00,38.3,26.0,30.15,NNW,338,2.0,4.0,61,0.00,,---,0.00,VWS V14.01,2013-03-15 10:55:00,
2013-03-15 07:00:00,38.3,25.6,30.15,NNW,343,5.0,5.0,60,0.00,,---,0.00,VWS V14.01,2013-03-15 11:00:00,
2013-03-15 07:05:00,38.4,25.7,30.15,NNW,338,3.0,6.0,60,0.00,,---,0.00,VWS V14.01,2013-03-15 11:05:00,
2013-03-15 07:10:00,38.3,25.6,30.15,NNW,340,2.0,4.0,60,0.00,,---,0.00,VWS V14.01,2013-03-15 11:10:00,
2013-03-15 07:15:00,38.1,25.9,30.15,NNW,338,2.0,3.0,61,0.00,,---,0.00,VWS V14.01,2013-03-15 11:15:00,
2013-03-15 07:20:00,37.9,26.1,30.16,NNW,336,3.0,4.0,62,0.00,,---,0.00,VWS V14.01,2013-03-15 11:20:00,
2013-03-15 07:25:00,37.9,26.1,30.16,NNW,333,2.0,4.0,62,0.00,,---,0.00,VWS V14.01,2013-03-15 11:25:00,
2013-03-15 07:30:00,38.1,26.2,30.15,NNW,333,1.0,3.0,62,0.00,,---,0.00,VWS V14.01,2013-03-15 11:30:00,
2013-03-15 07:35:00,38.2,26.7,30.16,NNW,333,2.0,3.0,63,0.00,,---,0.00,VWS V14.01,2013-03-15 11:35:00,
2013-03-15 07:40:00,38.2,27.1,30.16,NNW,331,4.0,4.0,64,0.00,,---,0.00,VWS V14.01,2013-03-15 11:40:00,
2013-03-15 07:45:00,38.4,27.7,30.16,NW,326,3.0,4.0,65,0.00,,---,0.00,VWS V14.01,2013-03-15 11:45:00,
2013-03-15 07:50:00,38.6,27.9,30.16,NW,326,3.0,3.0,65,0.00,,---,0.00,VWS V14.01,2013-03-15 11:50:00,
2013-03-15 07:55:00,38.9,28.9,30.16,NW,311,3.0,4.0,67,0.00,,---,0.00,VWS V14.01,2013-03-15 11:55:00,
2013-03-15 08:00:00,39.0,29.0,30.16,NW,305,4.0,4.0,67,0.00,,---,0.00,VWS V14.01,2013-03-15 12:00:00,
2013-03-15 08:05:00,39.3,29.6,30.16,WNW,294,5.0,5.0,68,0.00,,---,0.00,VWS V14.01,2013-03-15 12:05:00,
2013-03-15 08:10:00,39.4,29.4,30.17,NW,308,3.0,5.0,67,0.00,,---,0.00,VWS V14.01,2013-03-15 12:10:00,
2013-03-15 08:15:00,39.7,29.3,30.16,NW,307,2.0,5.0,66,0.00,,---,0.00,VWS V14.01,2013-03-15 12:15:00,
2013-03-15 08:20:00,40.1,29.3,30.17,NW,307,3.0,4.0,65,0.00,,---,0.00,VWS V14.01,2013-03-15 12:20:00,
2013-03-15 08:25:00,40.5,29.3,30.16,NW,306,3.0,4.0,64,0.00,,---,0.00,VWS V14.01,2013-03-15 12:25:00,
2013-03-15 08:30:00,41.0,29.4,30.16,NW,304,3.0,4.0,63,0.00,,---,0.00,VWS V14.01,2013-03-15 12:30:00,
2013-03-15 08:35:00,41.4,29.0,30.16,NW,307,3.0,4.0,61,0.00,,---,0.00,VWS V14.01,2013-03-15 12:35:00,
2013-03-15 08:40:00,41.8,28.1,30.16,NW,306,5.0,5.0,58,0.00,,---,0.00,VWS V14.01,2013-03-15 12:40:00,
2013-03-15 08:45:00,42.2,27.6,30.16,WNW,302,5.0,6.0,56,0.00,,---,0.00,VWS V14.01,2013-03-15 12:45:00,
2013-03-15 08:50:00,42.5,27.0,30.16,NW,319,4.0,6.0,54,0.00,,---,0.00,VWS V14.01,2013-03-15 12:50:00,
2013-03-15 08:55:00,42.8,26.4,30.16,NW,317,5.0,6.0,52,0.00,,---,0.00,VWS V14.01,2013-03-15 12:55:00,
2013-03-15 09:00:00,43.2,26.3,30.17,WNW,298,5.0,6.0,51,0.00,,---,0.00,VWS V14.01,2013-03-15 13:00:00,
2013-03-15 09:05:00,43.6,25.7,30.17,WNW,303,4.0,6.0,49,0.00,,---,0.00,VWS V14.01,2013-03-15 13:05:00,
2013-03-15 09:10:00,44.0,27.0,30.17,WNW,298,3.0,5.0,51,0.00,,---,0.00,VWS V14.01,2013-03-15 13:10:00,
2013-03-15 09:15:00,44.2,25.3,30.17,WNW,296,7.0,8.0,47,0.00,,---,0.00,VWS V14.01,2013-03-15 13:15:00,
2013-03-15 09:20:00,44.3,26.4,30.17,NW,311,4.0,7.0,49,0.00,,---,0.00,VWS V14.01,2013-03-15 13:20:00,
2013-03-15 09:25:00,44.7,25.2,30.17,NW,305,6.0,7.0,46,0.00,,---,0.00,VWS V14.01,2013-03-15 13:25:00,
2013-03-15 09:30:00,44.6,24.0,30.17,NW,306,7.0,8.0,44,0.00,,---,0.00,VWS V14.01,2013-03-15 13:30:00,
2013-03-15 09:35:00,44.6,24.0,30.17,NW,313,4.0,7.0,44,0.00,,---,0.00,VWS V14.01,2013-03-15 13:35:00,
2013-03-15 09:40:00,44.8,23.7,30.17,NW,323,7.0,7.0,43,0.00,,---,0.00,VWS V14.01,2013-03-15 13:40:00,
2013-03-15 09:45:00,45.0,23.9,30.17,WNW,298,5.0,6.0,43,0.00,,---,0.00,VWS V14.01,2013-03-15 13:45:00,
2013-03-15 09:50:00,45.6,23.9,30.17,WNW,294,5.0,7.0,42,0.00,,---,0.00,VWS V14.01,2013-03-15 13:50:00,
2013-03-15 09:55:00,46.0,23.6,30.17,NW,306,7.0,7.0,41,0.00,,---,0.00,VWS V14.01,2013-03-15 13:55:00,
2013-03-15 10:00:00,45.9,23.0,30.18,NW,313,5.0,8.0,40,0.00,,---,0.00,VWS V14.01,2013-03-15 14:00:00,
2013-03-15 10:05:00,46.1,23.1,30.18,WNW,298,3.0,7.0,40,0.00,,---,0.00,VWS V14.01,2013-03-15 14:05:00,
2013-03-15 10:10:00,46.5,22.9,30.18,NW,304,5.0,6.0,39,0.00,,---,0.00,VWS V14.01,2013-03-15 14:10:00,
2013-03-15 10:15:00,46.7,22.5,30.18,NW,319,2.0,7.0,38,0.00,,---,0.00,VWS V14.01,2013-03-15 14:15:00,
2013-03-15 10:20:00,47.3,24.2,30.18,WNW,301,5.0,6.0,40,0.00,,---,0.00,VWS V14.01,2013-03-15 14:20:00,
2013-03-15 10:25:00,47.8,22.8,30.17,WNW,290,6.0,9.0,37,0.00,,---,0.00,VWS V14.01,2013-03-15 14:25:00,
2013-03-15 10:30:00,48.0,23.0,30.17,NW,322,3.0,9.0,37,0.00,,---,0.00,VWS V14.01,2013-03-15 14:30:00,
2013-03-15 10:35:00,48.0,22.3,30.17,NW,318,5.0,8.0,36,0.00,,---,0.00,VWS V14.01,2013-03-15 14:35:00,
2013-03-15 10:40:00,48.0,22.3,30.17,WNW,296,5.0,6.0,36,0.00,,---,0.00,VWS V14.01,2013-03-15 14:40:00,
2013-03-15 10:45:00,48.0,22.3,30.16,WNW,290,6.0,7.0,36,0.00,,---,0.00,VWS V14.01,2013-03-15 14:45:00,
2013-03-15 10:50:00,48.1,23.1,30.16,NW,323,0.0,3.0,37,0.00,,---,0.00,VWS V14.01,2013-03-15 14:50:00,
2013-03-15 10:55:00,48.2,22.5,30.16,WNW,296,3.0,7.0,36,0.00,,---,0.00,VWS V14.01,2013-03-15 14:55:00,
2013-03-15 11:00:00,48.7,22.3,30.16,NW,325,6.0,9.0,35,0.00,,---,0.00,VWS V14.01,2013-03-15 15:00:00,
2013-03-15 11:04:00,48.9,21.8,30.16,WNW,290,8.0,9.0,34,0.00,,---,0.00,VWS V14.01,2013-03-15 15:04:00,
2013-03-15 11:10:00,48.7,23.0,30.16,WSW,256,8.0,8.0,36,0.00,,---,0.00,VWS V14.01,2013-03-15 15:10:00,
2013-03-15 11:14:00,49.0,22.6,30.16,WSW,250,5.0,9.0,35,0.00,,---,0.00,VWS V14.01,2013-03-15 15:14:00,
2013-03-15 11:19:00,49.1,22.0,30.16,WNW,300,7.0,8.0,34,0.00,,---,0.00,VWS V14.01,2013-03-15 15:19:00,
2013-03-15 11:24:00,49.0,22.6,30.16,NNW,328,4.0,6.0,35,0.00,,---,0.00,VWS V14.01,2013-03-15 15:24:00,
2013-03-15 11:29:00,49.4,21.5,30.16,WSW,250,6.0,6.0,33,0.00,,---,0.00,VWS V14.01,2013-03-15 15:29:00,
2013-03-15 11:34:00,49.8,21.9,30.15,WNW,294,9.0,11.0,33,0.00,,---,0.00,VWS V14.01,2013-03-15 15:34:00,
2013-03-15 11:39:00,50.2,20.0,30.15,WSW,256,9.0,9.0,30,0.00,,---,0.00,VWS V14.01,2013-03-15 15:39:00,
2013-03-15 11:44:00,50.2,20.0,30.15,WSW,248,7.0,9.0,30,0.00,,---,0.00,VWS V14.01,2013-03-15 15:44:00,
2013-03-15 11:49:00,50.1,19.9,30.15,WNW,301,7.0,9.0,30,0.00,,---,0.00,VWS V14.01,2013-03-15 15:49:00,
2013-03-15 11:54:00,49.7,21.1,30.14,WSW,240,12.0,12.0,32,0.00,,---,0.00,VWS V14.01,2013-03-15 15:54:00,
2013-03-15 11:59:00,49.9,25.3,30.14,WSW,247,9.0,9.0,38,0.00,,---,0.00,VWS V14.01,2013-03-15 15:59:00,
2013-03-15 12:04:00,49.1,27.0,30.14,SW,221,13.0,14.0,42,0.00,,---,0.00,VWS V14.01,2013-03-15 16:04:00,
2013-03-15 12:09:00,48.1,26.1,30.14,SW,221,14.0,15.0,42,0.00,,---,0.00,VWS V14.01,2013-03-15 16:09:00,
2013-03-15 12:14:00,48.0,24.2,30.13,SW,215,11.0,12.0,39,0.00,,---,0.00,VWS V14.01,2013-03-15 16:14:00,
2013-03-15 12:19:00,47.9,25.9,30.13,SW,236,8.0,14.0,42,0.00,,---,0.00,VWS V14.01,2013-03-15 16:19:00,
2013-03-15 12:24:00,47.9,25.4,30.13,SSW,213,9.0,14.0,41,0.00,,---,0.00,VWS V14.01,2013-03-15 16:24:00,
2013-03-15 12:29:00,48.0,27.1,30.13,SW,236,9.0,10.0,44,0.00,,---,0.00,VWS V14.01,2013-03-15 16:29:00,
2013-03-15 12:34:00,48.1,27.2,30.13,SW,221,11.0,11.0,44,0.00,,---,0.00,VWS V14.01,2013-03-15 16:34:00,
2013-03-15 12:39:00,48.2,28.4,30.13,SW,227,10.0,12.0,46,0.00,,---,0.00,VWS V14.01,2013-03-15 16:39:00,
2013-03-15 12:44:00,48.3,27.4,30.12,SW,227,12.0,16.0,44,0.00,,---,0.00,VWS V14.01,2013-03-15 16:44:00,
2013-03-15 12:49:00,48.4,28.6,30.12,SW,215,14.0,17.0,46,0.00,,---,0.00,VWS V14.01,2013-03-15 16:49:00,
2013-03-15 12:54:00,48.5,27.0,30.11,SW,216,16.0,16.0,43,0.00,,---,0.00,VWS V14.01,2013-03-15 16:54:00,
2013-03-15 12:59:00,48.5,29.7,30.11,SW,227,13.0,18.0,48,0.00,,---,0.00,VWS V14.01,2013-03-15 16:59:00,
2013-03-15 13:04:00,48.3,28.5,30.11,SW,226,17.0,18.0,46,0.00,,---,0.00,VWS V14.01,2013-03-15 17:04:00,
2013-03-15 13:09:00,48.3,29.0,30.11,SW,224,18.0,19.0,47,0.00,,---,0.00,VWS V14.01,2013-03-15 17:09:00,
2013-03-15 13:14:00,48.3,27.4,30.10,SW,229,16.0,18.0,44,0.00,,---,0.00,VWS V14.01,2013-03-15 17:14:00,
2013-03-15 13:19:00,48.4,29.1,30.10,SW,229,12.0,16.0,47,0.00,,---,0.00,VWS V14.01,2013-03-15 17:19:00,
2013-03-15 13:24:00,48.4,27.5,30.10,SW,225,16.0,17.0,44,0.00,,---,0.00,VWS V14.01,2013-03-15 17:24:00,
2013-03-15 13:29:00,48.5,28.7,30.10,SW,221,15.0,17.0,46,0.00,,---,0.00,VWS V14.01,2013-03-15 17:29:00,
2013-03-15 13:34:00,48.6,29.3,30.09,SW,225,15.0,19.0,47,0.00,,---,0.00,VWS V14.01,2013-03-15 17:34:00,
2013-03-15 13:39:00,48.5,29.2,30.09,SW,219,14.0,17.0,47,0.00,,---,0.00,VWS V14.01,2013-03-15 17:39:00,
2013-03-15 13:44:00,48.5,30.7,30.09,WSW,238,12.0,18.0,50,0.00,,---,0.00,VWS V14.01,2013-03-15 17:44:00,
2013-03-15 13:49:00,48.4,28.0,30.09,SW,223,14.0,18.0,45,0.00,,---,0.00,VWS V14.01,2013-03-15 17:49:00,
2013-03-15 13:54:00,48.6,29.8,30.08,SW,228,16.0,18.0,48,0.00,,---,0.00,VWS V14.01,2013-03-15 17:54:00,
2013-03-15 13:59:00,48.7,30.9,30.08,SW,235,14.0,18.0,50,0.00,,---,0.00,VWS V14.01,2013-03-15 17:59:00,
2013-03-15 14:04:00,48.7,31.4,30.08,SW,220,16.0,19.0,51,0.00,,---,0.00,VWS V14.01,2013-03-15 18:04:00,
2013-03-15 14:09:00,48.8,31.0,30.07,SW,226,16.0,18.0,50,0.00,,---,0.00,VWS V14.01,2013-03-15 18:09:00,
2013-03-15 14:14:00,48.9,31.1,30.07,SW,221,18.0,19.0,50,0.00,,---,0.00,VWS V14.01,2013-03-15 18:14:00,
2013-03-15 14:19:00,49.1,29.8,30.06,SW,228,17.0,20.0,47,0.00,,---,0.00,VWS V14.01,2013-03-15 18:19:00,
2013-03-15 14:24:00,49.0,31.7,30.06,SSW,213,15.0,20.0,51,0.00,,---,0.00,VWS V14.01,2013-03-15 18:24:00,
2013-03-15 14:29:00,49.2,32.3,30.05,SW,217,17.0,18.0,52,0.00,,---,0.00,VWS V14.01,2013-03-15 18:29:00,
2013-03-15 14:34:00,49.3,32.9,30.05,SW,220,14.0,18.0,53,0.00,,---,0.00,VWS V14.01,2013-03-15 18:34:00,
2013-03-15 14:39:00,49.4,32.0,30.05,SW,227,15.0,20.0,51,0.00,,---,0.00,VWS V14.01,2013-03-15 18:39:00,
2013-03-15 14:44:00,49.5,32.6,30.04,SW,234,15.0,21.0,52,0.00,,---,0.00,VWS V14.01,2013-03-15 18:44:00,
2013-03-15 14:49:00,49.7,33.8,30.04,SW,219,18.0,20.0,54,0.00,,---,0.00,VWS V14.01,2013-03-15 18:49:00,
2013-03-15 14:54:00,49.7,32.8,30.04,SW,221,20.0,22.0,52,0.00,,---,0.00,VWS V14.01,2013-03-15 18:54:00,
2013-03-15 14:59:00,49.9,34.8,30.04,SW,228,16.0,21.0,56,0.00,,---,0.00,VWS V14.01,2013-03-15 18:59:00,
2013-03-15 15:04:00,50.0,34.0,30.04,SW,235,16.0,22.0,54,0.00,,---,0.00,VWS V14.01,2013-03-15 19:04:00,
2013-03-15 15:09:00,50.1,33.2,30.04,SW,226,16.0,19.0,52,0.00,,---,0.00,VWS V14.01,2013-03-15 19:09:00,
2013-03-15 15:14:00,50.1,32.7,30.03,SW,234,15.0,19.0,51,0.00,,---,0.00,VWS V14.01,2013-03-15 19:14:00,
2013-03-15 15:19:00,50.4,34.9,30.03,SW,230,21.0,21.0,55,0.00,,---,0.00,VWS V14.01,2013-03-15 19:19:00,
2013-03-15 15:24:00,50.5,34.5,30.03,SW,236,15.0,19.0,54,0.00,,---,0.00,VWS V14.01,2013-03-15 19:24:00,
2013-03-15 15:29:00,50.6,34.6,30.03,SW,235,15.0,17.0,54,0.00,,---,0.00,VWS V14.01,2013-03-15 19:29:00,
2013-03-15 15:34:00,50.7,34.7,30.03,SW,235,14.0,18.0,54,0.00,,---,0.00,VWS V14.01,2013-03-15 19:34:00,
2013-03-15 15:39:00,50.9,36.2,30.03,SW,234,14.0,20.0,57,0.00,,---,0.00,VWS V14.01,2013-03-15 19:39:00,
2013-03-15 15:44:00,51.0,35.9,30.03,SW,236,14.0,19.0,56,0.00,,---,0.00,VWS V14.01,2013-03-15 19:44:00,
2013-03-15 15:49:00,51.0,35.9,30.02,SW,229,17.0,19.0,56,0.00,,---,0.00,VWS V14.01,2013-03-15 19:49:00,
2013-03-15 15:54:00,51.1,36.0,30.02,SW,234,15.0,19.0,56,0.00,,---,0.00,VWS V14.01,2013-03-15 19:54:00,
2013-03-15 15:59:00,51.3,37.5,30.02,WSW,240,18.0,20.0,59,0.00,,---,0.00,VWS V14.01,2013-03-15 19:59:00,
2013-03-15 16:04:00,51.4,37.6,30.02,SW,234,14.0,18.0,59,0.00,,---,0.00,VWS V14.01,2013-03-15 20:04:00,
2013-03-15 16:09:00,51.4,36.7,30.02,SW,232,17.0,22.0,57,0.00,,---,0.00,VWS V14.01,2013-03-15 20:09:00,
2013-03-15 16:14:00,51.4,36.2,30.02,WSW,244,19.0,21.0,56,0.00,,---,0.00,VWS V14.01,2013-03-15 20:14:00,
2013-03-15 16:19:00,51.5,36.8,30.02,WSW,240,20.0,20.0,57,0.00,,---,0.00,VWS V14.01,2013-03-15 20:19:00,
2013-03-15 16:24:00,51.4,35.3,30.01,WSW,243,19.0,21.0,54,0.00,,---,0.00,VWS V14.01,2013-03-15 20:24:00,
2013-03-15 16:29:00,51.4,36.2,30.01,WSW,243,17.0,21.0,56,0.00,,---,0.00,VWS V14.01,2013-03-15 20:29:00,
2013-03-15 16:34:00,51.4,35.8,30.01,SW,228,17.0,20.0,55,0.00,,---,0.00,VWS V14.01,2013-03-15 20:34:00,
2013-03-15 16:39:00,51.5,39.3,30.00,SW,235,16.0,21.0,63,0.00,,---,0.00,VWS V14.01,2013-03-15 20:39:00,
2013-03-15 16:44:00,51.4,36.7,30.00,SW,234,16.0,20.0,57,0.00,,---,0.00,VWS V14.01,2013-03-15 20:44:00,
2013-03-15 16:49:00,51.5,38.5,30.00,WSW,240,15.0,20.0,61,0.00,,---,0.00,VWS V14.01,2013-03-15 20:49:00,
2013-03-15 16:54:00,51.5,37.2,30.00,SW,229,19.0,24.0,58,0.00,,---,0.00,VWS V14.01,2013-03-15 20:54:00,
2013-03-15 16:59:00,51.6,38.2,29.99,WSW,242,16.0,22.0,60,0.00,,---,0.00,VWS V14.01,2013-03-15 20:59:00,
2013-03-15 17:04:00,51.6,37.3,29.99,WSW,242,16.0,23.0,58,0.00,,---,0.00,VWS V14.01,2013-03-15 21:04:00,
2013-03-15 17:09:00,51.7,37.4,29.99,SW,232,20.0,22.0,58,0.00,,---,0.00,VWS V14.01,2013-03-15 21:09:00,
2013-03-15 17:14:00,51.8,38.8,29.99,WSW,238,17.0,20.0,61,0.00,,---,0.00,VWS V14.01,2013-03-15 21:14:00,
2013-03-15 17:19:00,51.8,39.2,29.99,SW,234,15.0,21.0,62,0.00,,---,0.00,VWS V14.01,2013-03-15 21:19:00,
2013-03-15 17:24:00,51.9,40.1,29.99,SW,234,16.0,22.0,64,0.00,,---,0.00,VWS V14.01,2013-03-15 21:24:00,
2013-03-15 17:29:00,51.9,39.3,29.99,WSW,240,18.0,23.0,62,0.00,,---,0.00,VWS V14.01,2013-03-15 21:29:00,
2013-03-15 17:34:00,51.9,40.1,29.99,SW,234,18.0,25.0,64,0.00,,---,0.00,VWS V14.01,2013-03-15 21:34:00,
2013-03-15 17:39:00,52.0,39.8,29.98,WSW,242,22.0,24.0,63,0.00,,---,0.00,VWS V14.01,2013-03-15 21:39:00,
2013-03-15 17:44:00,52.0,39.8,29.99,WSW,241,22.0,25.0,63,0.00,,---,0.00,VWS V14.01,2013-03-15 21:44:00,
2013-03-15 17:49:00,52.1,40.3,29.98,WSW,237,18.0,22.0,64,0.00,,---,0.00,VWS V14.01,2013-03-15 21:49:00,
2013-03-15 17:54:00,52.2,41.2,29.98,SW,234,19.0,20.0,66,0.00,,---,0.00,VWS V14.01,2013-03-15 21:54:00,
2013-03-15 17:59:00,52.3,40.9,29.98,WSW,245,21.0,24.0,65,0.00,,---,0.00,VWS V14.01,2013-03-15 21:59:00,
2013-03-15 18:04:00,52.3,40.9,29.98,WSW,238,16.0,23.0,65,0.00,,---,0.00,VWS V14.01,2013-03-15 22:04:00,
2013-03-15 18:09:00,52.4,42.2,29.98,SW,236,17.0,24.0,68,0.00,,---,0.00,VWS V14.01,2013-03-15 22:09:00,
2013-03-15 18:14:00,52.4,41.0,29.98,SW,235,19.0,24.0,65,0.00,,---,0.00,VWS V14.01,2013-03-15 22:14:00,
2013-03-15 18:19:00,52.6,42.0,29.98,WSW,242,20.0,21.0,67,0.00,,---,0.00,VWS V14.01,2013-03-15 22:19:00,
2013-03-15 18:24:00,52.7,42.8,29.98,WSW,242,18.0,21.0,69,0.00,,---,0.00,VWS V14.01,2013-03-15 22:24:00,
2013-03-15 18:29:00,52.6,42.3,29.98,WSW,240,20.0,21.0,68,0.00,,---,0.00,VWS V14.01,2013-03-15 22:29:00,
2013-03-15 18:34:00,52.6,42.7,29.97,WSW,245,19.0,20.0,69,0.00,,---,0.00,VWS V14.01,2013-03-15 22:34:00,
2013-03-15 18:39:00,52.7,42.5,29.97,WSW,239,19.0,20.0,68,0.00,,---,0.00,VWS V14.01,2013-03-15 22:39:00,
2013-03-15 18:44:00,52.8,43.3,29.97,SW,232,18.0,19.0,70,0.00,,---,0.00,VWS V14.01,2013-03-15 22:44:00,
2013-03-15 18:49:00,52.7,43.6,29.96,SW,233,16.0,22.0,71,0.00,,---,0.00,VWS V14.01,2013-03-15 22:49:00,
2013-03-15 18:54:00,52.8,43.3,29.96,SW,236,17.0,21.0,70,0.00,,---,0.00,VWS V14.01,2013-03-15 22:54:00,
2013-03-15 18:59:00,53.0,43.9,29.96,SW,236,16.0,21.0,71,0.00,,---,0.00,VWS V14.01,2013-03-15 22:59:00,
2013-03-15 19:04:00,53.0,43.9,29.97,WSW,248,16.0,19.0,71,0.00,,---,0.00,VWS V14.01,2013-03-15 23:04:00,
2013-03-15 19:09:00,53.1,44.0,29.97,WSW,238,19.0,20.0,71,0.00,,---,0.00,VWS V14.01,2013-03-15 23:09:00,
2013-03-15 19:14:00,53.2,44.4,29.97,WSW,237,17.0,19.0,72,0.00,,---,0.00,VWS V14.01,2013-03-15 23:14:00,
2013-03-15 19:19:00,53.3,44.9,29.97,SW,236,14.0,19.0,73,0.00,,---,0.00,VWS V14.01,2013-03-15 23:19:00,
2013-03-15 19:24:00,53.3,44.2,29.97,WSW,239,15.0,19.0,71,0.00,,---,0.00,VWS V14.01,2013-03-15 23:24:00,
2013-03-15 19:29:00,53.3,44.2,29.96,WSW,244,16.0,19.0,71,0.00,,---,0.00,VWS V14.01,2013-03-15 23:29:00,
2013-03-15 19:34:00,53.4,44.2,29.96,SW,236,19.0,22.0,71,0.00,,---,0.00,VWS V14.01,2013-03-15 23:34:00,
2013-03-15 19:39:00,53.4,44.6,29.97,WSW,246,21.0,23.0,72,0.00,,---,0.00,VWS V14.01,2013-03-15 23:39:00,
2013-03-15 19:44:00,53.4,44.2,29.96,SW,233,17.0,20.0,71,0.00,,---,0.00,VWS V14.01,2013-03-15 23:44:00,
2013-03-15 19:49:00,53.5,44.0,29.96,WSW,243,16.0,25.0,70,0.00,,---,0.00,VWS V14.01,2013-03-15 23:49:00,
2013-03-15 19:54:00,53.5,44.0,29.96,WSW,242,21.0,23.0,70,0.00,,---,0.00,VWS V14.01,2013-03-15 23:54:00,
2013-03-15 19:59:00,53.6,44.1,29.96,WSW,239,17.0,24.0,70,0.00,,---,0.00,VWS V14.01,2013-03-15 23:59:00,
2013-03-15 20:04:00,53.7,44.5,29.96,WSW,242,18.0,21.0,71,0.00,,---,0.00,VWS V14.01,2013-03-16 00:04:00,
2013-03-15 20:09:00,53.7,44.2,29.96,WSW,239,20.0,21.0,70,0.00,,---,0.00,VWS V14.01,2013-03-16 00:09:00,
2013-03-15 20:14:00,53.6,44.4,29.96,WSW,237,19.0,20.0,71,0.00,,---,0.00,VWS V14.01,2013-03-16 00:14:00,
2013-03-15 20:19:00,53.6,44.4,29.96,WSW,242,22.0,25.0,71,0.00,,---,0.00,VWS V14.01,2013-03-16 00:19:00,
2013-03-15 20:24:00,53.7,43.4,29.97,WSW,238,19.0,25.0,68,0.00,,---,0.00,VWS V14.01,2013-03-16 00:24:00,
2013-03-15 20:29:00,53.7,44.5,29.97,WSW,243,24.0,24.0,71,0.00,,---,0.00,VWS V14.01,2013-03-16 00:29:00,
2013-03-15 20:34:00,53.7,43.8,29.97,WSW,242,19.0,23.0,69,0.00,,---,0.00,VWS V14.01,2013-03-16 00:34:00,
2013-03-15 20:39:00,53.8,44.6,29.97,WSW,256,19.0,22.0,71,0.00,,---,0.00,VWS V14.01,2013-03-16 00:39:00,
2013-03-15 20:44:00,53.7,44.5,29.96,WSW,250,18.0,22.0,71,0.00,,---,0.00,VWS V14.01,2013-03-16 00:44:00,
2013-03-15 20:49:00,53.7,44.9,29.97,WSW,249,22.0,24.0,72,0.00,,---,0.00,VWS V14.01,2013-03-16 00:49:00,
2013-03-15 20:54:00,53.7,44.5,29.96,WSW,244,23.0,26.0,71,0.00,,---,0.00,VWS V14.01,2013-03-16 00:54:00,
2013-03-15 20:59:00,53.6,44.4,29.97,WSW,254,21.0,25.0,71,0.00,,---,0.00,VWS V14.01,2013-03-16 00:59:00,
2013-03-15 21:04:00,53.7,44.5,29.97,WSW,246,22.0,28.0,71,0.00,,---,0.00,VWS V14.01,2013-03-16 01:04:00,
2013-03-15 21:09:00,53.7,44.9,29.96,WSW,242,16.0,23.0,72,0.00,,---,0.00,VWS V14.01,2013-03-16 01:09:00,
2013-03-15 21:14:00,53.7,44.5,29.97,WSW,252,19.0,24.0,71,0.00,,---,0.00,VWS V14.01,2013-03-16 01:14:00,
2013-03-15 21:19:00,53.7,44.9,29.97,WSW,244,22.0,24.0,72,0.00,,---,0.00,VWS V14.01,2013-03-16 01:19:00,
2013-03-15 21:24:00,53.8,44.6,29.97,WSW,250,22.0,27.0,71,0.00,,---,0.00,VWS V14.01,2013-03-16 01:24:00,
2013-03-15 21:29:00,53.8,44.6,29.97,WSW,245,22.0,25.0,71,0.00,,---,0.00,VWS V14.01,2013-03-16 01:29:00,
2013-03-15 21:34:00,53.8,45.0,29.97,WSW,246,23.0,26.0,72,0.00,,---,0.00,VWS V14.01,2013-03-16 01:34:00,
2013-03-15 21:39:00,53.8,44.6,29.97,WSW,256,19.0,25.0,71,0.00,,---,0.00,VWS V14.01,2013-03-16 01:39:00,
2013-03-15 21:44:00,53.8,45.4,29.96,WSW,246,21.0,23.0,73,0.00,,---,0.00,VWS V14.01,2013-03-16 01:44:00,
2013-03-15 21:49:00,53.8,45.0,29.96,WSW,256,21.0,23.0,72,0.00,,---,0.00,VWS V14.01,2013-03-16 01:49:00,
2013-03-15 21:54:00,53.9,45.5,29.96,WSW,251,18.0,24.0,73,0.00,,---,0.00,VWS V14.01,2013-03-16 01:54:00,
2013-03-15 21:59:00,53.8,45.7,29.97,WSW,252,21.0,24.0,74,0.00,,---,0.00,VWS V14.01,2013-03-16 01:59:00,
2013-03-15 22:04:00,53.9,45.8,29.97,WSW,250,21.0,26.0,74,0.00,,---,0.00,VWS V14.01,2013-03-16 02:04:00,
2013-03-15 22:09:00,53.9,45.5,29.96,WSW,240,21.0,25.0,73,0.00,,---,0.00,VWS V14.01,2013-03-16 02:09:00,
2013-03-15 22:14:00,54.0,45.9,29.96,WSW,248,22.0,25.0,74,0.00,,---,0.00,VWS V14.01,2013-03-16 02:14:00,
2013-03-15 22:19:00,54.0,45.9,29.96,WSW,252,19.0,22.0,74,0.00,,---,0.00,VWS V14.01,2013-03-16 02:19:00,
2013-03-15 22:24:00,54.0,45.9,29.96,WSW,251,24.0,26.0,74,0.00,,---,0.00,VWS V14.01,2013-03-16 02:24:00,
2013-03-15 22:29:00,54.1,46.0,29.96,WSW,249,26.0,26.0,74,0.00,,---,0.00,VWS V14.01,2013-03-16 02:29:00,
2013-03-15 22:34:00,54.1,46.4,29.97,WSW,253,20.0,26.0,75,0.00,,---,0.00,VWS V14.01,2013-03-16 02:34:00,
2013-03-15 22:39:00,54.2,46.5,29.96,WSW,248,22.0,24.0,75,0.00,,---,0.00,VWS V14.01,2013-03-16 02:39:00,
2013-03-15 22:44:00,54.2,46.5,29.96,WSW,257,25.0,28.0,75,0.00,,---,0.00,VWS V14.01,2013-03-16 02:44:00,
2013-03-15 22:49:00,54.3,46.6,29.96,WSW,256,21.0,29.0,75,0.00,,---,0.00,VWS V14.01,2013-03-16 02:49:00,
2013-03-15 22:54:00,54.3,46.6,29.96,WSW,253,24.0,27.0,75,0.00,,---,0.00,VWS V14.01,2013-03-16 02:54:00,
2013-03-15 22:59:00,54.3,46.6,29.96,WSW,252,25.0,26.0,75,0.00,,---,0.00,VWS V14.01,2013-03-16 02:59:00,
2013-03-15 23:04:00,54.4,47.0,29.96,WSW,251,26.0,28.0,76,0.00,,---,0.00,VWS V14.01,2013-03-16 03:04:00,
2013-03-15 23:09:00,54.4,47.3,29.95,WSW,253,22.0,26.0,77,0.00,,---,0.00,VWS V14.01,2013-03-16 03:09:00,
2013-03-15 23:14:00,54.4,47.3,29.95,WSW,241,20.0,25.0,77,0.00,,---,0.00,VWS V14.01,2013-03-16 03:14:00,
2013-03-15 23:19:00,54.3,47.2,29.95,WSW,246,19.0,26.0,77,0.00,,---,0.00,VWS V14.01,2013-03-16 03:19:00,
2013-03-15 23:24:00,54.4,47.3,29.95,WSW,242,20.0,25.0,77,0.00,,---,0.00,VWS V14.01,2013-03-16 03:24:00,
2013-03-15 23:29:00,54.4,47.7,29.95,WSW,247,19.0,23.0,78,0.00,,---,0.00,VWS V14.01,2013-03-16 03:29:00,
2013-03-15 23:34:00,54.4,47.7,29.95,WSW,240,22.0,26.0,78,0.00,,---,0.00,VWS V14.01,2013-03-16 03:34:00,
2013-03-15 23:39:00,54.4,48.0,29.95,WSW,246,19.0,26.0,79,0.00,,---,0.00,VWS V14.01,2013-03-16 03:39:00,
2013-03-15 23:44:00,54.4,48.0,29.95,WSW,248,18.0,23.0,79,0.00,,---,0.00,VWS V14.01,2013-03-16 03:44:00,
2013-03-15 23:49:00,54.4,48.0,29.94,WSW,245,21.0,24.0,79,0.00,,---,0.00,VWS V14.01,2013-03-16 03:49:00,
2013-03-15 23:54:00,54.5,48.1,29.94,WSW,248,17.0,25.0,79,0.00,,---,0.00,VWS V14.01,2013-03-16 03:54:00,
2013-03-15 23:59:00,54.5,48.1,29.94,WSW,244,20.0,25.0,79,0.00,,---,0.00,VWS V14.01,2013-03-16 03:59:00,